"Pseudo-MPEC" for X65516

Created 2019 Feb 15 22:18:11 UT using Find_Orb

Click here for an explanation of pseudo-MPECs

 
 Astrometry: 
     X65516   C2019 02 03=hoAstrometry=Q\UB8G-Uj1+7redacted;C[Wn+(T:@u(ijEX:/D29
     X65516   C2019 02 03vq+hclickr8C=I9H;]^r+iU_+oYhere[QIKP[elD;=O)6A-E@/`WD29
     X65516   C2019 02 03m2]g!forB64#A7)qrHcpd'EGqAN$explanationfHgLY[^urP:p8D29

Station data:
(D29) Purple Mountain Observatory, XuYi Station  (N32.734366 E118.463900)
   China.  Observers H. B. Zhao, B. Li, G. Zhaori, R. Q. Hong, L. F. Hu.
   Measurers H. B. Zhao, B. Li. H. Lu, G. Zhaori. 1.04-m f/1.8 Schmidt + CCD.

Orbital elements:  X65516
   Perihelion 2019 Feb 10.007996 +/- 40.3 TT =  0:11:30 (JD 2458524.507996)
Epoch 2019 Feb  4.0 TT = JDT 2458518.5   Earth MOID: 0.4260   Ma: 0.0080
M 358.50567343 +/- 33               (J2000 ecliptic)          AutoNEOCP
n   0.24872297 +/- 0.355            Peri.  117.24489 +/- 120
a   2.50414098 +/- 2.38             Node    34.67960 +/- 43
e   0.4362121 +/- 0.257             Incl.    2.89788 +/- 12
P   3.96                   H 21.3   G  0.15   U 12.0  SR
q 1.41180437 +/- 0.528    Q 3.59647758 +/- 41.6
From 3 observations 2019 Feb. 3 (40.7 min); mean residual 0".34
Residuals in arcseconds: 
190203 D29  .12+  .31-    190203 D29  .24-  .63+    190203 D29  .12+  .31-    

Ephemerides (geocentric):
Date (UTC) HH   RA              Dec         delta   r     elong  mag " sig PA
---- -- -- --  -------------   -----------  ------ ------ -----  --- ---- ---
2019 02 15 22  11 58 54.342   +08 14 41.02  .47029 1.4129 149.4 21.5  70d   6
2019 02 15 23  11 58 55.518   +08 14 30.91  .47019 1.4129 149.4 21.5  70d   6
2019 02 16 00  11 58 56.688   +08 14 20.81  .47009 1.4130 149.5 21.5  70d   6
2019 02 16 01  11 58 57.854   +08 14 10.72  .46998 1.4130 149.5 21.5  70d   6
2019 02 16 02  11 58 59.015   +08 14 00.64  .46988 1.4130 149.5 21.5  71d   6
2019 02 16 03  11 59 00.172   +08 13 50.57  .46978 1.4130 149.6 21.5  71d   6
2019 02 16 04  11 59 01.325   +08 13 40.50  .46968 1.4130 149.6 21.5  71d   6
2019 02 16 05  11 59 02.473   +08 13 30.45  .46958 1.4130 149.6 21.5  71d   6
2019 02 16 06  11 59 03.616   +08 13 20.41  .46948 1.4131 149.7 21.5  71d   6
2019 02 16 07  11 59 04.755   +08 13 10.37  .46938 1.4131 149.7 21.5  71d   6
2019 02 16 08  11 59 05.889   +08 13 00.35  .46928 1.4131 149.7 21.5  71d   6
2019 02 16 09  11 59 07.019   +08 12 50.33  .46918 1.4131 149.8 21.5  71d   6
2019 02 16 10  11 59 08.144   +08 12 40.32  .46908 1.4131 149.8 21.4  71d   6
2019 02 16 11  11 59 09.264   +08 12 30.32  .46898 1.4131 149.8 21.4  71d   6
2019 02 16 12  11 59 10.380   +08 12 20.34  .46888 1.4132 149.9 21.4  71d   6
2019 02 16 13  11 59 11.492   +08 12 10.36  .46878 1.4132 149.9 21.4  71d   6
2019 02 16 14  11 59 12.599   +08 12 00.39  .46868 1.4132 150.0 21.4  71d   6
2019 02 16 15  11 59 13.702   +08 11 50.43  .46858 1.4132 150.0 21.4  72d   6
2019 02 16 16  11 59 14.800   +08 11 40.48  .46849 1.4132 150.0 21.4  72d   6
2019 02 16 17  11 59 15.893   +08 11 30.53  .46839 1.4133 150.1 21.4  72d   6
2019 02 16 18  11 59 16.982   +08 11 20.60  .46829 1.4133 150.1 21.4  72d   6
2019 02 16 19  11 59 18.067   +08 11 10.68  .46819 1.4133 150.1 21.4  72d   6
2019 02 16 20  11 59 19.147   +08 11 00.76  .46810 1.4133 150.2 21.4  72d   6
2019 02 16 21  11 59 20.222   +08 10 50.85  .46800 1.4133 150.2 21.4  72d   6
2019 02 16 22  11 59 21.293   +08 10 40.96  .46790 1.4133 150.2 21.4  72d   6
2019 02 16 23  11 59 22.359   +08 10 31.07  .46780 1.4134 150.3 21.4  72d   6
2019 02 17 00  11 59 23.421   +08 10 21.19  .46771 1.4134 150.3 21.4  72d   6
2019 02 17 01  11 59 24.479   +08 10 11.32  .46761 1.4134 150.3 21.4  72d   6
2019 02 17 02  11 59 25.532   +08 10 01.46  .46752 1.4134 150.4 21.4  73d   6
2019 02 17 03  11 59 26.580   +08 09 51.61  .46742 1.4134 150.4 21.4  73d   6
2019 02 17 04  11 59 27.624   +08 09 41.77  .46732 1.4135 150.5 21.4  73d   6
2019 02 17 05  11 59 28.663   +08 09 31.93  .46723 1.4135 150.5 21.4  73d   6
2019 02 17 06  11 59 29.698   +08 09 22.11  .46713 1.4135 150.5 21.4  73d   6
2019 02 17 07  11 59 30.729   +08 09 12.29  .46704 1.4135 150.6 21.4  73d   6
2019 02 17 08  11 59 31.754   +08 09 02.48  .46694 1.4135 150.6 21.4  73d   6
2019 02 17 09  11 59 32.776   +08 08 52.69  .46685 1.4136 150.6 21.4  73d   6
2019 02 17 10  11 59 33.793   +08 08 42.90  .46675 1.4136 150.7 21.4  73d   6
2019 02 17 11  11 59 34.805   +08 08 33.12  .46666 1.4136 150.7 21.4  73d   6
2019 02 17 12  11 59 35.813   +08 08 23.34  .46657 1.4136 150.7 21.4  73d   6
2019 02 17 13  11 59 36.816   +08 08 13.58  .46647 1.4136 150.8 21.4  73d   6
2019 02 17 14  11 59 37.815   +08 08 03.83  .46638 1.4137 150.8 21.4  73d   6
2019 02 17 15  11 59 38.810   +08 07 54.08  .46629 1.4137 150.8 21.4  73d   6
2019 02 17 16  11 59 39.800   +08 07 44.34  .46619 1.4137 150.9 21.4  74d   6
2019 02 17 17  11 59 40.785   +08 07 34.61  .46610 1.4137 150.9 21.4  74d   6
2019 02 17 18  11 59 41.766   +08 07 24.89  .46601 1.4137 151.0 21.4  74d   6
2019 02 17 19  11 59 42.742   +08 07 15.18  .46591 1.4138 151.0 21.4  74d   6
2019 02 17 20  11 59 43.714   +08 07 05.48  .46582 1.4138 151.0 21.4  74d   6
2019 02 17 21  11 59 44.682   +08 06 55.79  .46573 1.4138 151.1 21.4  74d   6